�������C�����ː����j�^�v���󋵏��
Date,Time,Cs137(Bq/L),Cs134(Bq/L),�S��(Bq/L)
2017/02/22,00:00,0.83,0.087,ND
2017/02/22,00:10,0.81,0.094,ND
2017/02/22,00:20,0.81,0.096,ND
2017/02/22,00:30,0.77,0.092,ND
2017/02/22,00:40,0.77,0.087,ND
2017/02/22,00:50,0.74,0.095,ND
2017/02/22,01:00,0.75,0.092,ND
2017/02/22,01:10,0.76,0.086,ND
2017/02/22,01:20,0.79,0.10,ND
2017/02/22,01:30,0.81,0.093,ND
2017/02/22,01:40,0.80,0.092,ND
2017/02/22,01:50,0.82,0.093,ND
2017/02/22,02:00,0.79,0.078,ND
2017/02/22,02:10,0.80,0.076,ND
2017/02/22,02:20,0.84,0.080,ND
2017/02/22,02:30,0.83,0.071,ND
2017/02/22,02:40,0.88,0.082,ND
2017/02/22,02:50,0.85,0.091,ND
2017/02/22,03:00,0.87,0.092,ND
2017/02/22,03:10,0.86,0.10,ND
2017/02/22,03:20,0.87,0.10,ND
2017/02/22,03:30,0.85,0.10,ND
2017/02/22,03:40,0.81,0.10,ND
2017/02/22,03:50,0.82,0.11,ND
2017/02/22,04:00,0.81,0.10,ND
2017/02/22,04:10,0.84,0.089,ND
2017/02/22,04:20,0.84,0.086,ND
2017/02/22,04:30,0.84,0.085,ND
2017/02/22,04:40,0.86,0.087,ND
2017/02/22,04:50,0.89,0.078,ND
2017/02/22,05:00,0.92,0.081,ND
2017/02/22,05:10,0.93,0.087,ND
2017/02/22,05:20,0.92,0.10,ND
2017/02/22,05:30,0.96,0.098,ND
2017/02/22,05:40,1.0,0.097,ND
2017/02/22,05:50,1.0,0.10,ND
2017/02/22,06:00,1.0,0.097,ND
2017/02/22,06:10,1.1,0.10,ND
2017/02/22,06:20,1.1,0.10,ND
2017/02/22,06:30,1.1,0.10,10
2017/02/22,06:40,1.1,0.11,11
2017/02/22,06:50,1.1,0.11,11
2017/02/22,07:00,1.1,0.11,10
2017/02/22,07:10,1.1,0.10,11
2017/02/22,07:20,1.1,0.087,11
2017/02/22,07:30,1.1,0.084,9.7
2017/02/22,07:40,1.0,0.085,8.9
2017/02/22,07:50,0.96,0.084,ND
2017/02/22,08:00,0.95,0.082,ND
2017/02/22,08:10,0.92,0.092,ND
2017/02/22,08:20,0.93,0.11,ND
2017/02/22,08:30,0.90,0.12,ND
2017/02/22,08:40,0.92,0.11,ND
2017/02/22,08:50,0.90,0.12,ND
2017/02/22,09:00,0.85,0.11,ND
2017/02/22,09:10,0.83,0.10,ND
2017/02/22,09:20,0.86,0.12,ND
2017/02/22,09:30,0.88,0.11,ND
2017/02/22,09:40,0.84,0.098,ND
2017/02/22,09:50,0.86,0.087,ND
2017/02/22,10:00,0.91,0.098,ND
2017/02/22,10:10,0.94,0.096,ND
2017/02/22,10:20,0.93,0.082,ND
2017/02/22,10:30,0.93,0.089,ND
2017/02/22,10:40,0.97,0.084,12
2017/02/22,10:50,0.98,0.093,10
2017/02/22,11:00,1.0,0.10,ND
2017/02/22,11:10,0.99,0.10,ND
2017/02/22,11:20,1.0,0.12,ND
2017/02/22,11:30,1.0,0.12,ND
2017/02/22,11:40,1.0,0.11,ND
2017/02/22,11:50,1.0,0.11,ND
2017/02/22,12:00,0.99,0.097,11
2017/02/22,12:10,0.99,0.083,13
2017/02/22,12:20,0.98,0.089,12
2017/02/22,12:30,0.96,0.089,13
2017/02/22,12:40,0.91,0.10,9.7
2017/02/22,12:50,0.94,0.099,10
2017/02/22,13:00,0.93,0.10,ND
2017/02/22,13:10,0.92,0.11,ND
2017/02/22,13:20,0.91,0.10,ND
2017/02/22,13:30,0.90,0.10,ND
2017/02/22,13:40,0.87,0.085,ND
2017/02/22,13:50,0.91,0.095,ND
2017/02/22,14:00,0.91,0.095,ND
2017/02/22,14:10,0.87,0.094,ND
2017/02/22,14:20,0.88,0.098,ND
2017/02/22,14:30,0.90,0.10,ND
2017/02/22,14:40,0.94,0.095,ND
2017/02/22,14:50,0.95,0.11,ND
2017/02/22,15:00,0.95,0.11,ND
2017/02/22,15:10,0.98,0.11,ND
2017/02/22,15:20,1.1,0.11,ND
2017/02/22,15:30,1.1,0.11,ND
2017/02/22,15:40,1.1,0.12,ND
2017/02/22,15:50,1.1,0.12,ND
2017/02/22,16:00,1.1,0.12,10
2017/02/22,16:10,1.2,0.11,10
2017/02/22,16:20,1.2,0.12,ND
2017/02/22,16:30,1.1,0.11,8.8
2017/02/22,16:40,1.2,0.10,ND
2017/02/22,16:50,1.2,0.096,ND
2017/02/22,17:00,1.1,0.096,ND
2017/02/22,17:10,1.1,0.087,ND
2017/02/22,17:20,1.1,0.097,ND
2017/02/22,17:30,1.1,0.10,10
2017/02/22,17:40,1.1,0.10,12
2017/02/22,17:50,1.1,0.11,ND
2017/02/22,18:00,1.1,0.11,ND
2017/02/22,18:10,1.0,0.12,ND
2017/02/22,18:20,1.1,0.12,ND
2017/02/22,18:30,1.1,0.12,ND
2017/02/22,18:40,1.1,0.13,ND
2017/02/22,18:50,1.1,0.12,ND
2017/02/22,19:00,1.1,0.12,ND
2017/02/22,19:10,1.2,0.12,10
2017/02/22,19:20,1.1,0.13,9.3
2017/02/22,19:30,1.1,0.11,ND
2017/02/22,19:40,1.1,0.11,ND
2017/02/22,19:50,1.2,0.13,8.8
2017/02/22,20:00,1.2,0.13,ND
2017/02/22,20:10,1.2,0.13,ND
2017/02/22,20:20,1.2,0.13,8.9
2017/02/22,20:30,1.2,0.13,8.8
2017/02/22,20:40,1.2,0.13,ND
2017/02/22,20:50,1.1,0.12,ND
2017/02/22,21:00,1.1,0.11,ND
2017/02/22,21:10,1.1,0.11,ND
2017/02/22,21:20,1.1,0.11,ND
2017/02/22,21:30,1.1,0.11,ND
2017/02/22,21:40,1.1,0.12,ND
2017/02/22,21:50,1.1,0.13,ND
2017/02/22,22:00,1.1,0.13,9.7
2017/02/22,22:10,1.1,0.14,ND
2017/02/22,22:20,1.1,0.13,ND
2017/02/22,22:30,1.1,0.13,ND
2017/02/22,22:40,1.1,0.13,ND
2017/02/22,22:50,1.1,0.12,ND
2017/02/22,23:00,1.1,0.12,ND
2017/02/22,23:10,1.1,0.12,ND
2017/02/22,23:20,1.1,0.11,ND
2017/02/22,23:30,1.1,0.11,ND
2017/02/22,23:40,1.1,0.11,ND
2017/02/22,23:50,1.1,0.12,ND
